Weather History for Kalaeloa, HI

Change the Weather History Date:

Tuesday, March 20, 2012

  Actual Average (PHNL) Record (PHNL)
Temperature  
Mean Temperature 72 °F 75 °F  
Max Temperature 79 °F 81 °F 88 °F (1998)
Min Temperature 64 °F 68 °F 60 °F (1981)
Degree Days  
Heating Degree Days 0 0  
Month to date heating degree days 0  
Since 1 July heating degree days 0  
Cooling Degree Days 6 10  
Month to date cooling degree days 183  
Year to date cooling degree days 665  
Growing Degree Days 22 (Base 50)    
Moisture  
Dew Point 63 °F    
Average Humidity 76    
Maximum Humidity 88    
Minimum Humidity 60    
Precipitation  
Precipitation 0.00 in 0.06 in 1.69 in (1991)
Month to date precipitation 1.37  
Year to date precipitation 5.67  
Snow  
Snow 0.00 in - - ()
Month to date snowfall  
Since 1 July snowfall  
Snow Depth -    
Sea Level Pressure  
Sea Level Pressure 30.08 in    
Wind  
Wind Speed 3 mph (ESE)    
Max Wind Speed 13 mph    
Max Gust Speed 21 mph    
Visibility 10 miles    
Events      
T = Trace of Precipitation, MM = Missing Value Source: NWS Daily Summary

Daily Weather History Graph

Daily Weather History Graph

Search for Another Location

Airport:

Trip Planner

Search our weather history database for the weather conditions in past years. The results will help you decide how hot, cold, wet, or windy it might be!

Date:

Astronomy

Mar. 20, 2012 Rise Set
Actual Time 6:35 AM HST 6:43 PM HST
Civil Twilight 6:13 AM HST 7:05 PM HST
Nautical Twilight 5:47 AM HST 7:31 PM HST
Astronomical Twilight 5:21 AM HST 7:57 PM HST
Moon 5:15 AM HST (3/20) 5:27 PM HST (3/20)
Length of Visible Light 12h 52m
Length of Day
12h 07m
Waning Crescent, 3% of the Moon is Illuminated
Mar 20
Waning Crescent
Mar 22
New
Mar 30
First Quarter
Apr 6
Full
Apr 13
Last Quarter

Hourly Weather History & Observations

Time (HST) Temp. Dew Point Humidity Pressure Visibility Wind Dir Wind Speed Gust Speed Precip Events Conditions
12:53 AM 66.0 °F 61.0 °F 84% 30.08 in 10.0 mi Calm Calm - N/A   Clear
1:53 AM 66.0 °F 61.0 °F 84% 30.06 in 10.0 mi NNE 3.5 mph - N/A   Clear
2:53 AM 66.9 °F 61.0 °F 81% 30.04 in 10.0 mi Calm Calm - N/A   Partly Cloudy
3:53 AM 64.9 °F 61.0 °F 87% 30.04 in 10.0 mi Calm Calm - N/A   Clear
4:21 AM 64.4 °F 60.8 °F 88% 30.02 in 10.0 mi Calm Calm - N/A   Partly Cloudy
4:53 AM 64.9 °F 61.0 °F 87% 30.04 in 10.0 mi Calm Calm - N/A   Clear
5:53 AM 64.9 °F 61.0 °F 87% 30.06 in 10.0 mi ENE 3.5 mph - N/A   Mostly Cloudy
6:21 AM 64.4 °F 60.8 °F 88% 30.04 in 10.0 mi ENE 4.6 mph - N/A   Mostly Cloudy
6:53 AM 64.9 °F 61.0 °F 87% 30.07 in 10.0 mi Variable 3.5 mph - N/A   Scattered Clouds
7:53 AM 71.1 °F 63.0 °F 75% 30.09 in 10.0 mi Calm Calm - N/A   Mostly Cloudy
8:39 AM 73.4 °F 64.4 °F 73% 30.08 in 10.0 mi East 5.8 mph - N/A   Mostly Cloudy
8:53 AM 75.9 °F 64.9 °F 69% 30.10 in 10.0 mi East 5.8 mph - N/A   Mostly Cloudy
9:53 AM 78.1 °F 63.0 °F 60% 30.11 in 10.0 mi Variable 4.6 mph - N/A   Scattered Clouds
10:53 AM 79.0 °F 66.0 °F 64% 30.10 in 10.0 mi South 8.1 mph - N/A   Scattered Clouds
11:53 AM 79.0 °F 66.0 °F 64% 30.10 in 10.0 mi South 9.2 mph - N/A   Scattered Clouds
12:53 PM 79.0 °F 66.9 °F 66% 30.08 in 10.0 mi SE 10.4 mph 17.3 mph N/A   Clear
1:53 PM 78.1 °F 68.0 °F 71% 30.06 in 10.0 mi ESE 12.7 mph 19.6 mph N/A   Partly Cloudy
2:53 PM 75.9 °F 66.9 °F 74% 30.05 in 10.0 mi ESE 11.5 mph 18.4 mph N/A   Overcast
3:53 PM 78.1 °F 66.9 °F 68% 30.05 in 10.0 mi SE 9.2 mph 18.4 mph N/A   Partly Cloudy
4:53 PM 75.9 °F 66.9 °F 74% 30.05 in 10.0 mi SE 11.5 mph 20.7 mph N/A   Mostly Cloudy
5:53 PM 77.0 °F 62.1 °F 60% 30.07 in 10.0 mi Calm Calm - N/A   Overcast
6:53 PM 75.0 °F 62.1 °F 64% 30.09 in 10.0 mi Variable 3.5 mph - N/A   Overcast
7:53 PM 72.0 °F 62.1 °F 71% 30.11 in 10.0 mi Variable 3.5 mph - N/A   Clear
8:53 PM 70.0 °F 62.1 °F 76% 30.13 in 10.0 mi Calm Calm - N/A   Clear
9:42 PM 68.0 °F 60.8 °F 78% 30.12 in 10.0 mi Calm Calm - N/A   Partly Cloudy
9:53 PM 69.1 °F 61.0 °F 75% 30.14 in 10.0 mi Variable 3.5 mph - N/A   Partly Cloudy
10:53 PM 66.9 °F 61.0 °F 81% 30.15 in 10.0 mi Calm Calm - N/A   Clear
11:53 PM 68.0 °F 61.0 °F 78% 30.15 in 10.0 mi ENE 3.5 mph - N/A   Clear